#datetime,building,power
2022-09-26T00:00:00,pkn,1.20
2022-09-26T00:01:00,pkn,1.20
2022-09-26T00:03:00,pkn,1.20
2022-09-26T00:05:00,pkn,2.40
2022-09-26T00:08:00,pkn,2.40
2022-09-26T00:10:00,pkn,1.20
2022-09-26T00:12:00,pkn,1.20
2022-09-26T00:14:00,pkn,6.00
2022-09-26T00:16:00,pkn,9.60
2022-09-26T00:17:00,pkn,7.20
2022-09-26T00:19:00,pkn,9.60
2022-09-26T00:21:00,pkn,7.20
2022-09-26T00:22:00,pkn,1.20
2022-09-26T00:25:00,pkn,2.40
2022-09-26T00:26:00,pkn,1.20
2022-09-26T00:28:00,pkn,1.20
2022-09-26T00:29:00,pkn,1.20
2022-09-26T00:31:00,pkn,1.20
2022-09-26T00:33:00,pkn,2.40
2022-09-26T00:35:00,pkn,1.20
2022-09-26T00:36:00,pkn,1.20
2022-09-26T00:38:00,pkn,1.20
2022-09-26T00:40:00,pkn,2.40
2022-09-26T00:42:00,pkn,1.20
2022-09-26T00:43:00,pkn,1.20
2022-09-26T00:45:00,pkn,1.20
2022-09-26T00:47:00,pkn,2.40
2022-09-26T00:49:00,pkn,1.20
2022-09-26T00:51:00,pkn,7.20
2022-09-26T00:53:00,pkn,10.80
2022-09-26T00:54:00,pkn,6.00
2022-09-26T00:55:00,pkn,3.60
2022-09-26T00:57:00,pkn,10.80
2022-09-26T00:59:00,pkn,6.00
2022-09-26T01:01:00,pkn,1.20
2022-09-26T01:03:00,pkn,2.40
2022-09-26T01:05:00,pkn,1.20
2022-09-26T01:07:00,pkn,2.40
2022-09-26T01:10:00,pkn,6.00
2022-09-26T01:12:00,pkn,8.40
2022-09-26T01:13:00,pkn,6.00
2022-09-26T01:15:00,pkn,10.80
2022-09-26T01:17:00,pkn,8.40
2022-09-26T01:19:00,pkn,9.60
2022-09-26T01:21:00,pkn,7.20
2022-09-26T01:23:00,pkn,1.20
2022-09-26T01:25:00,pkn,2.40
2022-09-26T01:27:00,pkn,1.20
2022-09-26T01:28:00,pkn,1.20
2022-09-26T01:30:00,pkn,1.20
2022-09-26T01:32:00,pkn,2.40
2022-09-26T01:34:00,pkn,3.60
2022-09-26T01:36:00,pkn,3.60
2022-09-26T01:37:00,pkn,2.40
2022-09-26T01:39:00,pkn,1.20
2022-09-26T01:40:00,pkn,1.20
2022-09-26T01:42:00,pkn,1.20
2022-09-26T01:44:00,pkn,3.60
2022-09-26T01:45:00,pkn,2.40
2022-09-26T01:46:00,pkn,8.40
2022-09-26T01:48:00,pkn,10.80
2022-09-26T01:50:00,pkn,9.60
2022-09-26T01:52:00,pkn,9.60
2022-09-26T01:53:00,pkn,1.20
2022-09-26T01:55:00,pkn,1.20
2022-09-26T01:57:00,pkn,2.40
2022-09-26T01:59:00,pkn,1.20
2022-09-26T02:01:00,pkn,2.40
2022-09-26T02:04:00,pkn,2.40
2022-09-26T02:06:00,pkn,1.20
2022-09-26T02:08:00,pkn,2.40
2022-09-26T02:11:00,pkn,2.40
2022-09-26T02:13:00,pkn,1.20
2022-09-26T02:15:00,pkn,2.40
2022-09-26T02:17:00,pkn,1.20
2022-09-26T02:18:00,pkn,1.20
2022-09-26T02:20:00,pkn,1.20
2022-09-26T02:21:00,pkn,1.20
2022-09-26T02:24:00,pkn,2.40
2022-09-26T02:26:00,pkn,1.20
2022-09-26T02:27:00,pkn,1.20
2022-09-26T02:29:00,pkn,1.20
2022-09-26T02:31:00,pkn,6.00
2022-09-26T02:32:00,pkn,4.80
2022-09-26T02:33:00,pkn,2.40
2022-09-26T02:34:00,pkn,8.40
2022-09-26T02:36:00,pkn,8.40
2022-09-26T02:38:00,pkn,10.80
2022-09-26T02:39:00,pkn,4.80
2022-09-26T02:41:00,pkn,7.20
2022-09-26T02:43:00,pkn,1.20
2022-09-26T02:44:00,pkn,1.20
2022-09-26T02:45:00,pkn,1.20
2022-09-26T02:47:00,pkn,1.20
2022-09-26T02:48:00,pkn,1.20
2022-09-26T02:49:00,pkn,1.20
2022-09-26T02:52:00,pkn,2.40
2022-09-26T02:55:00,pkn,2.40
2022-09-26T02:58:00,pkn,2.40
2022-09-26T03:00:00,pkn,1.20
2022-09-26T03:01:00,pkn,1.20
2022-09-26T03:03:00,pkn,2.40
2022-09-26T03:06:00,pkn,2.40
2022-09-26T03:07:00,pkn,1.20
2022-09-26T03:10:00,pkn,2.40
2022-09-26T03:13:00,pkn,2.40
2022-09-26T03:15:00,pkn,1.20
2022-09-26T03:17:00,pkn,1.20
2022-09-26T03:19:00,pkn,2.40
2022-09-26T03:22:00,pkn,1.20
2022-09-26T03:24:00,pkn,2.40
2022-09-26T03:27:00,pkn,2.40
2022-09-26T03:30:00,pkn,2.40
2022-09-26T03:32:00,pkn,1.20
2022-09-26T03:33:00,pkn,1.20
2022-09-26T03:34:00,pkn,1.20
2022-09-26T03:36:00,pkn,1.20
2022-09-26T03:37:00,pkn,1.20
2022-09-26T03:39:00,pkn,1.20
2022-09-26T03:40:00,pkn,1.20
2022-09-26T03:41:00,pkn,1.20
2022-09-26T03:44:00,pkn,2.40
2022-09-26T03:46:00,pkn,4.80
2022-09-26T03:48:00,pkn,9.60
2022-09-26T03:49:00,pkn,6.00
2022-09-26T03:51:00,pkn,8.40
2022-09-26T03:52:00,pkn,6.00
2022-09-26T03:54:00,pkn,1.20
2022-09-26T03:55:00,pkn,1.20
2022-09-26T03:57:00,pkn,1.20
2022-09-26T03:58:00,pkn,1.20
2022-09-26T04:01:00,pkn,2.40
2022-09-26T04:02:00,pkn,1.20
2022-09-26T04:03:00,pkn,1.20
2022-09-26T04:05:00,pkn,1.20
2022-09-26T04:07:00,pkn,2.40
2022-09-26T04:09:00,pkn,1.20
2022-09-26T04:10:00,pkn,1.20
2022-09-26T04:12:00,pkn,1.20
2022-09-26T04:13:00,pkn,1.20
2022-09-26T04:15:00,pkn,1.20
2022-09-26T04:16:00,pkn,1.20
2022-09-26T04:18:00,pkn,1.20
2022-09-26T04:20:00,pkn,2.40
2022-09-26T04:22:00,pkn,1.20
2022-09-26T04:23:00,pkn,1.20
2022-09-26T04:25:00,pkn,1.20
2022-09-26T04:27:00,pkn,1.20
2022-09-26T04:28:00,pkn,1.20
2022-09-26T04:29:00,pkn,1.20
2022-09-26T04:31:00,pkn,2.40
2022-09-26T04:33:00,pkn,1.20
2022-09-26T04:35:00,pkn,2.40
2022-09-26T04:37:00,pkn,1.20
2022-09-26T04:38:00,pkn,1.20
2022-09-26T04:40:00,pkn,1.20
2022-09-26T04:42:00,pkn,2.40
2022-09-26T04:44:00,pkn,1.20
2022-09-26T04:45:00,pkn,1.20
2022-09-26T04:47:00,pkn,1.20
2022-09-26T04:49:00,pkn,1.20
2022-09-26T04:52:00,pkn,2.40
2022-09-26T04:53:00,pkn,1.20
2022-09-26T04:55:00,pkn,1.20
2022-09-26T04:56:00,pkn,1.20
2022-09-26T04:58:00,pkn,1.20
2022-09-26T05:01:00,pkn,2.40
2022-09-26T05:03:00,pkn,1.20
2022-09-26T05:04:00,pkn,1.20
2022-09-26T05:05:00,pkn,1.20
2022-09-26T05:07:00,pkn,1.20
2022-09-26T05:08:00,pkn,1.20
2022-09-26T05:10:00,pkn,1.20
2022-09-26T05:12:00,pkn,8.40
2022-09-26T05:13:00,pkn,4.80
2022-09-26T05:15:00,pkn,10.80
2022-09-26T05:17:00,pkn,8.40
2022-09-26T05:19:00,pkn,1.20
2022-09-26T05:20:00,pkn,1.20
2022-09-26T05:22:00,pkn,1.20
2022-09-26T05:23:00,pkn,1.20
2022-09-26T05:25:00,pkn,1.20
2022-09-26T05:26:00,pkn,1.20
2022-09-26T05:28:00,pkn,1.20
2022-09-26T05:30:00,pkn,2.40
2022-09-26T05:32:00,pkn,1.20
2022-09-26T05:34:00,pkn,2.40
2022-09-26T05:36:00,pkn,1.20
2022-09-26T05:38:00,pkn,2.40
2022-09-26T05:39:00,pkn,1.20
2022-09-26T05:41:00,pkn,1.20
2022-09-26T05:43:00,pkn,2.40
2022-09-26T05:45:00,pkn,1.20
2022-09-26T05:46:00,pkn,1.20
2022-09-26T05:48:00,pkn,1.20
2022-09-26T05:50:00,pkn,1.20
2022-09-26T05:51:00,pkn,1.20
2022-09-26T05:52:00,pkn,1.20
2022-09-26T05:54:00,pkn,1.20
2022-09-26T05:55:00,pkn,1.20
2022-09-26T05:58:00,pkn,2.40
2022-09-26T06:00:00,pkn,1.20
2022-09-26T06:02:00,pkn,1.20
2022-09-26T06:04:00,pkn,1.20
2022-09-26T06:06:00,pkn,2.40
2022-09-26T06:08:00,pkn,1.20
2022-09-26T06:09:00,pkn,1.20
2022-09-26T06:12:00,pkn,2.40
2022-09-26T06:14:00,pkn,1.20
2022-09-26T06:16:00,pkn,1.20
2022-09-26T06:18:00,pkn,1.20
2022-09-26T06:20:00,pkn,1.20
2022-09-26T06:22:00,pkn,1.20
2022-09-26T06:24:00,pkn,2.40
2022-09-26T06:26:00,pkn,1.20
2022-09-26T06:27:00,pkn,1.20
2022-09-26T06:29:00,pkn,1.20
2022-09-26T06:31:00,pkn,2.40
2022-09-26T06:34:00,pkn,2.40
2022-09-26T06:37:00,pkn,2.40
2022-09-26T06:38:00,pkn,1.20
2022-09-26T06:40:00,pkn,1.20
2022-09-26T06:42:00,pkn,1.20
2022-09-26T06:44:00,pkn,2.40
2022-09-26T06:47:00,pkn,2.40
2022-09-26T06:49:00,pkn,1.20
2022-09-26T06:50:00,pkn,1.20
2022-09-26T06:52:00,pkn,2.40
2022-09-26T06:53:00,pkn,1.20
2022-09-26T06:55:00,pkn,7.20
2022-09-26T06:57:00,pkn,9.60
2022-09-26T06:59:00,pkn,10.80
2022-09-26T07:01:00,pkn,8.40
2022-09-26T07:03:00,pkn,9.60
2022-09-26T07:05:00,pkn,1.20
2022-09-26T07:06:00,pkn,1.20
2022-09-26T07:08:00,pkn,1.20
2022-09-26T07:10:00,pkn,2.40
2022-09-26T07:11:00,pkn,1.20
2022-09-26T07:14:00,pkn,2.40
2022-09-26T07:17:00,pkn,2.40
2022-09-26T07:19:00,pkn,2.40
2022-09-26T07:21:00,pkn,8.40
2022-09-26T07:23:00,pkn,10.80
2022-09-26T07:24:00,pkn,3.60
2022-09-26T07:26:00,pkn,9.60
2022-09-26T07:27:00,pkn,4.80
2022-09-26T07:29:00,pkn,9.60
2022-09-26T07:30:00,pkn,2.40
2022-09-26T07:32:00,pkn,1.20
2022-09-26T07:35:00,pkn,1.20
2022-09-26T07:36:00,pkn,1.20
2022-09-26T07:38:00,pkn,2.40
2022-09-26T07:39:00,pkn,2.40
2022-09-26T07:40:00,pkn,2.40
2022-09-26T07:42:00,pkn,3.60
2022-09-26T07:43:00,pkn,1.20
2022-09-26T07:45:00,pkn,9.60
2022-09-26T07:47:00,pkn,12.00
2022-09-26T07:48:00,pkn,4.80
2022-09-26T07:50:00,pkn,10.80
2022-09-26T07:51:00,pkn,3.60
2022-09-26T07:53:00,pkn,6.00
2022-09-26T07:55:00,pkn,1.20
2022-09-26T07:58:00,pkn,1.20
2022-09-26T07:59:00,pkn,1.20
2022-09-26T08:01:00,pkn,1.20
2022-09-26T08:03:00,pkn,2.40
2022-09-26T08:05:00,pkn,1.20
2022-09-26T08:07:00,pkn,9.60
2022-09-26T08:09:00,pkn,8.40
2022-09-26T08:11:00,pkn,10.80
2022-09-26T08:12:00,pkn,3.60
2022-09-26T08:14:00,pkn,10.80
2022-09-26T08:16:00,pkn,2.40
2022-09-26T08:18:00,pkn,1.20
2022-09-26T08:20:00,pkn,2.40
2022-09-26T08:22:00,pkn,1.20
2022-09-26T08:23:00,pkn,1.20
2022-09-26T08:25:00,pkn,1.20
2022-09-26T08:27:00,pkn,1.20
2022-09-26T08:29:00,pkn,1.20
2022-09-26T08:30:00,pkn,1.20
2022-09-26T08:32:00,pkn,7.20
2022-09-26T08:34:00,pkn,8.40
2022-09-26T08:35:00,pkn,6.00
2022-09-26T08:37:00,pkn,8.40
2022-09-26T08:38:00,pkn,4.80
2022-09-26T08:40:00,pkn,6.00
2022-09-26T08:41:00,pkn,1.20
2022-09-26T08:44:00,pkn,1.20
2022-09-26T08:46:00,pkn,1.20
2022-09-26T08:49:00,pkn,2.40
2022-09-26T08:51:00,pkn,1.20
2022-09-26T08:53:00,pkn,1.20
2022-09-26T08:55:00,pkn,1.20
2022-09-26T08:58:00,pkn,1.20
2022-09-26T09:00:00,pkn,7.20
2022-09-26T09:02:00,pkn,8.40
2022-09-26T09:03:00,pkn,9.60
2022-09-26T09:04:00,pkn,3.60
2022-09-26T09:05:00,pkn,9.60
2022-09-26T09:07:00,pkn,4.80
2022-09-26T09:09:00,pkn,1.20
2022-09-26T09:11:00,pkn,1.20
2022-09-26T09:14:00,pkn,1.20
2022-09-26T09:16:00,pkn,1.20
2022-09-26T09:18:00,pkn,1.20
2022-09-26T09:20:00,pkn,1.20
2022-09-26T09:22:00,pkn,1.20
2022-09-26T09:25:00,pkn,1.20
2022-09-26T09:26:00,pkn,1.20
2022-09-26T09:28:00,pkn,9.60
2022-09-26T09:29:00,pkn,3.60
2022-09-26T09:30:00,pkn,3.60
2022-09-26T09:32:00,pkn,9.60
2022-09-26T09:34:00,pkn,9.60
2022-09-26T09:36:00,pkn,1.20
2022-09-26T09:37:00,pkn,1.20
2022-09-26T09:40:00,pkn,1.20
2022-09-26T09:43:00,pkn,1.20
2022-09-26T09:44:00,pkn,1.20
2022-09-26T09:47:00,pkn,1.20
2022-09-26T09:50:00,pkn,1.20
2022-09-26T09:54:00,pkn,1.20
2022-09-26T09:57:00,pkn,1.20
2022-09-26T09:59:00,pkn,1.20
2022-09-26T10:03:00,pkn,8.40
2022-09-26T10:04:00,pkn,3.60
2022-09-26T10:05:00,pkn,4.80
2022-09-26T10:06:00,pkn,3.60
2022-09-26T10:07:00,pkn,9.60
2022-09-26T10:09:00,pkn,9.60
2022-09-26T10:10:00,pkn,2.40
2022-09-26T10:12:00,pkn,1.20
2022-09-26T10:15:00,pkn,2.40
2022-09-26T10:17:00,pkn,1.20
2022-09-26T10:20:00,pkn,1.20
2022-09-26T10:24:00,pkn,1.20
2022-09-26T10:25:00,pkn,1.20
2022-09-26T10:29:00,pkn,1.20
2022-09-26T10:30:00,pkn,1.20
2022-09-26T10:32:00,pkn,8.40
2022-09-26T10:34:00,pkn,8.40
2022-09-26T10:35:00,pkn,4.80
2022-09-26T10:37:00,pkn,9.60
2022-09-26T10:39:00,pkn,8.40
2022-09-26T10:40:00,pkn,4.80
2022-09-26T10:42:00,pkn,4.80
2022-09-26T10:44:00,pkn,1.20
2022-09-26T10:48:00,pkn,1.20
2022-09-26T10:49:00,pkn,1.20
2022-09-26T10:52:00,pkn,1.20
2022-09-26T10:54:00,pkn,1.20
2022-09-26T10:56:00,pkn,1.20
2022-09-26T10:59:00,pkn,1.20
2022-09-26T11:01:00,pkn,6.00
2022-09-26T11:03:00,pkn,9.60
2022-09-26T11:05:00,pkn,9.60
2022-09-26T11:06:00,pkn,9.60
2022-09-26T11:07:00,pkn,3.60
2022-09-26T11:08:00,pkn,9.60
2022-09-26T11:09:00,pkn,4.80
2022-09-26T11:11:00,pkn,1.20
2022-09-26T11:13:00,pkn,1.20
2022-09-26T11:14:00,pkn,1.20
2022-09-26T11:16:00,pkn,1.20
2022-09-26T11:19:00,pkn,1.20
2022-09-26T11:21:00,pkn,1.20
2022-09-26T11:23:00,pkn,1.20
2022-09-26T11:27:00,pkn,1.20
2022-09-26T11:29:00,pkn,1.20
2022-09-26T11:31:00,pkn,1.20
2022-09-26T11:33:00,pkn,1.20
2022-09-26T11:34:00,pkn,1.20
2022-09-26T11:36:00,pkn,1.20
2022-09-26T11:39:00,pkn,1.20
2022-09-26T11:41:00,pkn,7.20
2022-09-26T11:42:00,pkn,3.60
2022-09-26T11:44:00,pkn,9.60
2022-09-26T11:45:00,pkn,3.60
2022-09-26T11:46:00,pkn,4.80
2022-09-26T11:48:00,pkn,3.60
2022-09-26T11:50:00,pkn,1.20
2022-09-26T11:53:00,pkn,1.20
2022-09-26T11:55:00,pkn,1.20
2022-09-26T11:58:00,pkn,1.20
2022-09-26T12:00:00,pkn,1.20
2022-09-26T12:04:00,pkn,1.20
2022-09-26T12:07:00,pkn,1.20
2022-09-26T12:09:00,pkn,1.20
2022-09-26T12:11:00,pkn,1.20
2022-09-26T12:15:00,pkn,1.20
2022-09-26T12:16:00,pkn,1.20
2022-09-26T12:19:00,pkn,1.20
2022-09-26T12:23:00,pkn,1.20
2022-09-26T12:25:00,pkn,2.40
2022-09-26T12:27:00,pkn,10.80
2022-09-26T12:28:00,pkn,6.00
2022-09-26T12:30:00,pkn,13.20
2022-09-26T12:32:00,pkn,10.80
2022-09-26T12:33:00,pkn,1.20
2022-09-26T12:34:00,pkn,1.20
2022-09-26T12:36:00,pkn,3.60
2022-09-26T12:37:00,pkn,1.20
2022-09-26T12:39:00,pkn,2.40
2022-09-26T12:40:00,pkn,1.20
2022-09-26T12:41:00,pkn,2.40
2022-09-26T12:42:00,pkn,1.20
2022-09-26T12:44:00,pkn,2.40
2022-09-26T12:45:00,pkn,1.20
2022-09-26T12:47:00,pkn,1.20
2022-09-26T12:48:00,pkn,1.20
2022-09-26T12:51:00,pkn,1.20
2022-09-26T12:52:00,pkn,1.20
2022-09-26T12:54:00,pkn,1.20
2022-09-26T12:56:00,pkn,1.20
2022-09-26T12:58:00,pkn,1.20
2022-09-26T13:00:00,pkn,1.20
2022-09-26T13:02:00,pkn,1.20
2022-09-26T13:03:00,pkn,1.20
2022-09-26T13:06:00,pkn,1.20
2022-09-26T13:08:00,pkn,1.20
2022-09-26T13:10:00,pkn,1.20
2022-09-26T13:12:00,pkn,1.20
2022-09-26T13:15:00,pkn,1.20
2022-09-26T13:17:00,pkn,3.60
2022-09-26T13:18:00,pkn,3.60
2022-09-26T13:20:00,pkn,9.60
2022-09-26T13:21:00,pkn,4.80
2022-09-26T13:23:00,pkn,8.40
2022-09-26T13:27:00,pkn,1.20
2022-09-26T13:28:00,pkn,1.20
2022-09-26T13:31:00,pkn,1.20
2022-09-26T13:34:00,pkn,1.20
2022-09-26T13:37:00,pkn,1.20
2022-09-26T13:39:00,pkn,1.20
2022-09-26T13:43:00,pkn,1.20
2022-09-26T13:45:00,pkn,1.20
2022-09-26T13:48:00,pkn,1.20
2022-09-26T13:51:00,pkn,1.20
2022-09-26T13:53:00,pkn,1.20
2022-09-26T13:55:00,pkn,1.20
2022-09-26T13:57:00,pkn,1.20
2022-09-26T14:01:00,pkn,1.20
2022-09-26T14:03:00,pkn,1.20
2022-09-26T14:06:00,pkn,7.20
2022-09-26T14:08:00,pkn,8.40
2022-09-26T14:09:00,pkn,4.80
2022-09-26T14:11:00,pkn,9.60
2022-09-26T14:13:00,pkn,4.80
2022-09-26T14:17:00,pkn,1.20
2022-09-26T14:19:00,pkn,1.20
2022-09-26T14:21:00,pkn,1.20
2022-09-26T14:23:00,pkn,1.20
2022-09-26T14:27:00,pkn,1.20
2022-09-26T14:29:00,pkn,1.20
2022-09-26T14:32:00,pkn,1.20
2022-09-26T14:34:00,pkn,1.20
2022-09-26T14:36:00,pkn,1.20
2022-09-26T14:40:00,pkn,1.20
2022-09-26T14:42:00,pkn,1.20
2022-09-26T14:44:00,pkn,1.20
2022-09-26T14:47:00,pkn,1.20
2022-09-26T14:49:00,pkn,1.20
2022-09-26T14:52:00,pkn,1.20
2022-09-26T14:55:00,pkn,1.20
2022-09-26T14:57:00,pkn,1.20
2022-09-26T15:00:00,pkn,1.20
2022-09-26T15:03:00,pkn,1.20
2022-09-26T15:05:00,pkn,1.20
2022-09-26T15:08:00,pkn,9.60
2022-09-26T15:10:00,pkn,9.60
2022-09-26T15:12:00,pkn,9.60
2022-09-26T15:14:00,pkn,9.60
2022-09-26T15:16:00,pkn,2.40
2022-09-26T15:18:00,pkn,1.20
2022-09-26T15:19:00,pkn,1.20
2022-09-26T15:21:00,pkn,1.20
2022-09-26T15:23:00,pkn,1.20
2022-09-26T15:25:00,pkn,1.20
2022-09-26T15:27:00,pkn,1.20
2022-09-26T15:30:00,pkn,1.20
2022-09-26T15:31:00,pkn,1.20
2022-09-26T15:33:00,pkn,1.20
2022-09-26T15:35:00,pkn,1.20
2022-09-26T15:36:00,pkn,1.20
2022-09-26T15:38:00,pkn,1.20
2022-09-26T15:39:00,pkn,1.20
2022-09-26T15:41:00,pkn,1.20
2022-09-26T15:43:00,pkn,1.20
2022-09-26T15:44:00,pkn,1.20
2022-09-26T15:46:00,pkn,1.20
2022-09-26T15:48:00,pkn,1.20
2022-09-26T15:50:00,pkn,1.20
2022-09-26T15:51:00,pkn,1.20
2022-09-26T15:53:00,pkn,1.20
2022-09-26T15:55:00,pkn,1.20
2022-09-26T15:57:00,pkn,1.20
2022-09-26T15:59:00,pkn,1.20
2022-09-26T16:01:00,pkn,3.60
2022-09-26T16:03:00,pkn,1.20
2022-09-26T16:06:00,pkn,1.20
2022-09-26T16:07:00,pkn,1.20
2022-09-26T16:09:00,pkn,1.20
2022-09-26T16:11:00,pkn,1.20
2022-09-26T16:13:00,pkn,1.20
2022-09-26T16:15:00,pkn,2.40
2022-09-26T16:17:00,pkn,1.20
2022-09-26T16:20:00,pkn,2.40
2022-09-26T16:23:00,pkn,2.40
2022-09-26T16:25:00,pkn,12.00
2022-09-26T16:27:00,pkn,10.80
2022-09-26T16:28:00,pkn,6.00
2022-09-26T16:30:00,pkn,8.40
2022-09-26T16:32:00,pkn,4.80
2022-09-26T16:33:00,pkn,1.20
2022-09-26T16:35:00,pkn,2.40
2022-09-26T16:38:00,pkn,2.40
2022-09-26T16:40:00,pkn,1.20
2022-09-26T16:42:00,pkn,2.40
2022-09-26T16:45:00,pkn,2.40
2022-09-26T16:47:00,pkn,1.20
2022-09-26T16:48:00,pkn,1.20
2022-09-26T16:50:00,pkn,2.40
2022-09-26T16:52:00,pkn,1.20
2022-09-26T16:53:00,pkn,1.20
2022-09-26T16:55:00,pkn,1.20
2022-09-26T16:56:00,pkn,1.20
2022-09-26T16:58:00,pkn,2.40
2022-09-26T17:00:00,pkn,1.20
2022-09-26T17:03:00,pkn,2.40
2022-09-26T17:05:00,pkn,1.20
2022-09-26T17:07:00,pkn,1.20
2022-09-26T17:09:00,pkn,1.20
2022-09-26T17:10:00,pkn,1.20
2022-09-26T17:12:00,pkn,1.20
2022-09-26T17:14:00,pkn,2.40
2022-09-26T17:16:00,pkn,1.20
2022-09-26T17:18:00,pkn,1.20
2022-09-26T17:19:00,pkn,1.20
2022-09-26T17:21:00,pkn,1.20
2022-09-26T17:23:00,pkn,1.20
2022-09-26T17:25:00,pkn,1.20
2022-09-26T17:26:00,pkn,1.20
2022-09-26T17:28:00,pkn,1.20
2022-09-26T17:30:00,pkn,1.20
2022-09-26T17:32:00,pkn,2.40
2022-09-26T17:35:00,pkn,1.20
2022-09-26T17:37:00,pkn,2.40
2022-09-26T17:38:00,pkn,1.20
2022-09-26T17:40:00,pkn,1.20
2022-09-26T17:42:00,pkn,1.20
2022-09-26T17:44:00,pkn,2.40
2022-09-26T17:45:00,pkn,3.60
2022-09-26T17:47:00,pkn,9.60
2022-09-26T17:48:00,pkn,3.60
2022-09-26T17:49:00,pkn,1.20
2022-09-26T17:50:00,pkn,8.40
2022-09-26T17:51:00,pkn,6.00
2022-09-26T17:53:00,pkn,2.40
2022-09-26T17:55:00,pkn,1.20
2022-09-26T17:57:00,pkn,2.40
2022-09-26T17:59:00,pkn,1.20
2022-09-26T18:01:00,pkn,1.20
2022-09-26T18:03:00,pkn,1.20
2022-09-26T18:05:00,pkn,1.20
2022-09-26T18:07:00,pkn,1.20
2022-09-26T18:08:00,pkn,1.20
2022-09-26T18:10:00,pkn,1.20
2022-09-26T18:11:00,pkn,1.20
2022-09-26T18:13:00,pkn,2.40
2022-09-26T18:15:00,pkn,4.80
2022-09-26T18:17:00,pkn,8.40
2022-09-26T18:19:00,pkn,12.00
2022-09-26T18:21:00,pkn,10.80
2022-09-26T18:23:00,pkn,12.00
2022-09-26T18:24:00,pkn,4.80
2022-09-26T18:26:00,pkn,9.60
2022-09-26T18:28:00,pkn,3.60
2022-09-26T18:29:00,pkn,1.20
2022-09-26T18:31:00,pkn,1.20
2022-09-26T18:32:00,pkn,1.20
2022-09-26T18:35:00,pkn,2.40
2022-09-26T18:38:00,pkn,2.40
2022-09-26T18:41:00,pkn,2.40
2022-09-26T18:43:00,pkn,2.40
2022-09-26T18:46:00,pkn,2.40
2022-09-26T18:48:00,pkn,2.40
2022-09-26T18:49:00,pkn,1.20
2022-09-26T18:51:00,pkn,1.20
2022-09-26T18:55:00,pkn,2.40
2022-09-26T18:56:00,pkn,1.20
2022-09-26T18:58:00,pkn,1.20
2022-09-26T19:00:00,pkn,7.20
2022-09-26T19:01:00,pkn,6.00
2022-09-26T19:03:00,pkn,10.80
2022-09-26T19:05:00,pkn,8.40
2022-09-26T19:07:00,pkn,7.20
2022-09-26T19:09:00,pkn,1.20
2022-09-26T19:10:00,pkn,1.20
2022-09-26T19:12:00,pkn,1.20
2022-09-26T19:14:00,pkn,1.20
2022-09-26T19:16:00,pkn,1.20
2022-09-26T19:17:00,pkn,1.20
2022-09-26T19:19:00,pkn,1.20
2022-09-26T19:21:00,pkn,1.20
2022-09-26T19:22:00,pkn,1.20
2022-09-26T19:24:00,pkn,9.60
2022-09-26T19:26:00,pkn,9.60
2022-09-26T19:28:00,pkn,9.60
2022-09-26T19:30:00,pkn,9.60
2022-09-26T19:31:00,pkn,4.80
2022-09-26T19:32:00,pkn,4.80
2022-09-26T19:33:00,pkn,2.40
2022-09-26T19:34:00,pkn,3.60
2022-09-26T19:36:00,pkn,2.40
2022-09-26T19:38:00,pkn,1.20
2022-09-26T19:39:00,pkn,1.20
2022-09-26T19:41:00,pkn,1.20
2022-09-26T19:42:00,pkn,1.20
2022-09-26T19:45:00,pkn,1.20
2022-09-26T19:46:00,pkn,1.20
2022-09-26T19:47:00,pkn,1.20
2022-09-26T19:49:00,pkn,1.20
2022-09-26T19:51:00,pkn,1.20
2022-09-26T19:52:00,pkn,1.20
2022-09-26T19:55:00,pkn,1.20
2022-09-26T19:57:00,pkn,2.40
2022-09-26T19:59:00,pkn,1.20
2022-09-26T20:01:00,pkn,1.20
2022-09-26T20:03:00,pkn,7.20
2022-09-26T20:04:00,pkn,6.00
2022-09-26T20:06:00,pkn,8.40
2022-09-26T20:07:00,pkn,6.00
2022-09-26T20:09:00,pkn,9.60
2022-09-26T20:11:00,pkn,2.40
2022-09-26T20:13:00,pkn,1.20
2022-09-26T20:15:00,pkn,1.20
2022-09-26T20:17:00,pkn,1.20
2022-09-26T20:18:00,pkn,1.20
2022-09-26T20:19:00,pkn,1.20
2022-09-26T20:21:00,pkn,1.20
2022-09-26T20:23:00,pkn,2.40
2022-09-26T20:26:00,pkn,2.40
2022-09-26T20:28:00,pkn,1.20
2022-09-26T20:29:00,pkn,1.20
2022-09-26T20:30:00,pkn,1.20
2022-09-26T20:32:00,pkn,1.20
2022-09-26T20:34:00,pkn,1.20
2022-09-26T20:36:00,pkn,2.40
2022-09-26T20:38:00,pkn,1.20
2022-09-26T20:40:00,pkn,1.20
2022-09-26T20:41:00,pkn,1.20
2022-09-26T20:42:00,pkn,1.20
2022-09-26T20:45:00,pkn,1.20
2022-09-26T20:46:00,pkn,1.20
2022-09-26T20:48:00,pkn,1.20
2022-09-26T20:49:00,pkn,1.20
2022-09-26T20:51:00,pkn,1.20
2022-09-26T20:53:00,pkn,1.20
2022-09-26T20:55:00,pkn,2.40
2022-09-26T20:57:00,pkn,1.20
2022-09-26T20:59:00,pkn,1.20
2022-09-26T21:00:00,pkn,1.20
2022-09-26T21:02:00,pkn,3.60
2022-09-26T21:04:00,pkn,9.60
2022-09-26T21:05:00,pkn,4.80
2022-09-26T21:07:00,pkn,10.80
2022-09-26T21:09:00,pkn,8.40
2022-09-26T21:10:00,pkn,3.60
2022-09-26T21:12:00,pkn,1.20
2022-09-26T21:14:00,pkn,1.20
2022-09-26T21:16:00,pkn,1.20
2022-09-26T21:17:00,pkn,1.20
2022-09-26T21:19:00,pkn,1.20
2022-09-26T21:21:00,pkn,1.20
2022-09-26T21:23:00,pkn,1.20
2022-09-26T21:24:00,pkn,1.20
2022-09-26T21:26:00,pkn,1.20
2022-09-26T21:28:00,pkn,1.20
2022-09-26T21:29:00,pkn,1.20
2022-09-26T21:31:00,pkn,1.20
2022-09-26T21:33:00,pkn,1.20
2022-09-26T21:34:00,pkn,1.20
2022-09-26T21:36:00,pkn,1.20
2022-09-26T21:38:00,pkn,2.40
2022-09-26T21:41:00,pkn,1.20
2022-09-26T21:42:00,pkn,1.20
2022-09-26T21:44:00,pkn,1.20
2022-09-26T21:46:00,pkn,1.20
2022-09-26T21:47:00,pkn,1.20
2022-09-26T21:49:00,pkn,1.20
2022-09-26T21:50:00,pkn,1.20
2022-09-26T21:52:00,pkn,1.20
2022-09-26T21:53:00,pkn,1.20
2022-09-26T21:55:00,pkn,1.20
2022-09-26T21:57:00,pkn,1.20
2022-09-26T21:58:00,pkn,1.20
2022-09-26T22:00:00,pkn,1.20
2022-09-26T22:02:00,pkn,1.20
2022-09-26T22:05:00,pkn,1.20
2022-09-26T22:07:00,pkn,1.20
2022-09-26T22:09:00,pkn,2.40
2022-09-26T22:12:00,pkn,1.20
2022-09-26T22:14:00,pkn,1.20
2022-09-26T22:16:00,pkn,2.40
2022-09-26T22:18:00,pkn,1.20
2022-09-26T22:20:00,pkn,1.20
2022-09-26T22:22:00,pkn,9.60
2022-09-26T22:24:00,pkn,9.60
2022-09-26T22:25:00,pkn,3.60
2022-09-26T22:27:00,pkn,10.80
2022-09-26T22:28:00,pkn,2.40
2022-09-26T22:30:00,pkn,1.20
2022-09-26T22:32:00,pkn,1.20
2022-09-26T22:34:00,pkn,2.40
2022-09-26T22:36:00,pkn,1.20
2022-09-26T22:39:00,pkn,2.40
2022-09-26T22:41:00,pkn,2.40
2022-09-26T22:43:00,pkn,3.60
2022-09-26T22:45:00,pkn,1.20
2022-09-26T22:47:00,pkn,2.40
2022-09-26T22:49:00,pkn,1.20
2022-09-26T22:50:00,pkn,1.20
2022-09-26T22:52:00,pkn,2.40
2022-09-26T22:54:00,pkn,1.20
2022-09-26T22:55:00,pkn,1.20
2022-09-26T22:57:00,pkn,2.40
2022-09-26T22:59:00,pkn,1.20
2022-09-26T23:01:00,pkn,2.40
2022-09-26T23:03:00,pkn,1.20
2022-09-26T23:05:00,pkn,2.40
2022-09-26T23:06:00,pkn,1.20
2022-09-26T23:08:00,pkn,1.20
2022-09-26T23:09:00,pkn,1.20
2022-09-26T23:11:00,pkn,2.40
2022-09-26T23:12:00,pkn,3.60
2022-09-26T23:14:00,pkn,10.80
2022-09-26T23:15:00,pkn,3.60
2022-09-26T23:16:00,pkn,6.00
2022-09-26T23:18:00,pkn,9.60
2022-09-26T23:20:00,pkn,4.80
2022-09-26T23:21:00,pkn,1.20
2022-09-26T23:23:00,pkn,2.40
2022-09-26T23:26:00,pkn,2.40
2022-09-26T23:27:00,pkn,1.20
2022-09-26T23:30:00,pkn,2.40
2022-09-26T23:32:00,pkn,1.20
2022-09-26T23:34:00,pkn,2.40
2022-09-26T23:37:00,pkn,2.40
2022-09-26T23:39:00,pkn,2.40
2022-09-26T23:41:00,pkn,10.80
2022-09-26T23:42:00,pkn,4.80
2022-09-26T23:44:00,pkn,10.80
2022-09-26T23:45:00,pkn,4.80
2022-09-26T23:47:00,pkn,9.60
2022-09-26T23:49:00,pkn,10.80
2022-09-26T23:51:00,pkn,9.60
2022-09-26T23:53:00,pkn,2.40
2022-09-26T23:55:00,pkn,2.40
2022-09-26T23:57:00,pkn,1.20
2022-09-26T23:59:00,pkn,2.40
